Find OrbAstro-TR5

NORAD ID: 63236 Int'l Des: 2025-052 Owner: ORBAS/LIFTE Country: UK operational
LEOCIRCULARRETROGRADESSO

現在のビュー

3D地球を読み込み中...

OrbAstro-TR5について

説明を読み込み中...

次回通過

Passes for default location (London). Set your location on the main map for personalized predictions.

高度履歴

Loading altitude history...

軌道要素

1 63236U 25052AC 26146.20842070 .00004778 00000-0 21321-3 0 9994
2 63236 97.3869 38.2716 0002622 203.6328 156.4788 15.21851867 66473
Epoch: May 26, 2026 • Age: 14 hours

現在のステータス

高度 528.0 km
速度 7.60 km/s
衛星直下点 -82.19°S, 57.83°W
打ち上げ日 Mar 15, 2025
運用期間 1.1 years
タイプ other

技術仕様

分類 Payload
質量 10.00 kg
乾燥質量 10.00 kg
総質量 10.00 kg
長さ 0.30 m
直径 0.10 m
スパン 0.30 m
形状 Box
製造者 ORBAS
バスタイプ Cubesat 6U
フェーズステータス In Orbit
所有者/国 ORBAS/LIFTE/UK

Most Searched